User: anonymous
Location: Maiden
(35.5760°N, 81.2120°W)
Time: 09:52:55
(UTC-04:00)
Language:

Cosmos 2151 - Orbit

View from above orbital plane
View from above orbital plane
View from above satellite
View from above satellite

Ground track
Ground track

The orbit data is extracted from the following two-line orbital elements,

1 21422U 91042A   14212.46372546  .00000901  00000-0  90332-4 0  9625
2 21422 082.5032 166.4307 0014498 197.2508 162.8220 14.90204390251751
Epoch (UTC): 31 July 2014 11:07:45
Eccentricity: 0.0014498
inclination: 82.5032°
perigee height: 587 km
apogee height: 607 km
right ascension of ascending node: 166.4307°
argument of perigee: 197.2508°
revolutions per day: 14.90204390
mean anomaly at epoch: 162.8220°
orbit number at epoch: 25175

The dashed part of the orbit path shows where the satellite is in the earth's shadow,  

DLR